User: anonymous   Login
Location: Unspecified
(0.0000°N, 0.0000°E)
Time: 16:36:52
(UTC+00:00)
Language:

Vela 2B - Orbit

View from above orbital plane
View from above orbital plane
View from above satellite
View from above satellite

Ground track
Ground track

The orbit data is extracted from the following two-line orbital elements,

1   837U 64040B   21287.49313632  .00000243  00000-0  00000+0 0  9991
2   837  44.2922 153.4773 3772728 310.3646  20.5136  0.23998942 50224
Epoch (UTC): 14 October 2021 11:50:06
Eccentricity: 0.3772728
inclination: 44.2922°
perigee height: 61735 km
apogee height: 144267 km
right ascension of ascending node: 153.4773°
argument of perigee: 310.3646°
revolutions per day: 0.23998942
mean anomaly at epoch: 20.5136°
orbit number at epoch: 5022

The dashed part of the orbit path shows where the satellite is in the earth's shadow,  

DLR